[[{"header":{"parameterUnit":"m.s-1","parameterCategory":1,"la1":30.2991,"la2":30.254,"lo1":-89.0895,"lo2":-89.0444,"dy":0.0017,"dx":0.0017,"nx":28,"ny":28,"refTime":"2024-03-10T03:00:00:Z","depth":0,"parameterNumber":2,"parameterNumberName":"U-component_of_WINDS"},"data":[0,0,0,0,0,0,0,0,0,0,0,0,0,0,0,0,0,0,0,0,0,0,0,0,0,0,0,0,0,0,0,0,0,0,0,0,0,0,0,0,0,0,0,0,0,0,0,0,0,0,0,0,0,0,0,0,0,0,2.4799,2.48,0,2.4855,2.4855,2.4856,2.486,2.486,2.4859,2.4858,2.4917,2.4919,2.4921,0,0,0,0,0,0,0,0,0,0,0,0,0,2.4699,2.4701,2.4799,2.48,2.48,2.4855,2.4855,2.4856,2.486,2.486,2.4859,2.4858,2.4916,2.4919,2.4921,0,0,0,0,0,0,0,0,0,0,0,0,0,2.4747,2.4701,2.4799,2.4809,2.481,2.4855,2.4855,2.4856,2.4861,2.486,2.4859,2.4858,2.4915,2.4918,2.4921,2.496,0,0,2.4931,2.4933,0,0,0,0,0,0,0,0,2.4745,2.4751,2.4807,2.4808,2.481,2.485,2.4842,2.4891,2.4861,2.4842,2.4858,2.4857,2.4895,2.49,2.4913,2.4962,2.4965,2.4932,2.4933,2.4935,2.4936,0,0,0,0,0,0,0,2.4741,2.4749,2.4821,2.4808,2.481,2.4812,2.4818,2.4851,2.4873,2.4843,2.4844,2.485,2.4896,2.4909,2.4914,2.4966,2.4931,2.4934,2.4936,2.4937,2.5052,2.5053,0,0,0,0,0,0,2.4736,2.4746,2.4819,2.4823,2.4774,2.4814,2.4821,2.4838,2.4873,2.4877,2.4851,2.485,2.4904,2.491,2.4916,2.4964,2.4935,2.4938,2.494,2.5051,2.5052,2.5054,0,0,0,0,0,0,2.4734,2.4742,2.4817,2.4785,2.4794,2.4817,2.4836,2.4839,2.4853,2.4878,2.4882,2.486,2.4904,2.4912,2.4949,2.4966,2.4939,2.4942,2.505,2.5051,2.5053,2.506,0,0,0,0,0,0,2.4731,2.4741,2.4755,2.4785,2.4796,2.4848,2.4837,2.4841,2.4858,2.4858,2.4888,2.4893,2.4904,2.4944,2.4952,2.497,2.4945,2.5048,2.505,2.5052,2.5058,2.5061,2.5064,0,0,0,0,0,2.4727,2.4755,2.4756,2.4765,2.4814,2.4849,2.4856,2.4868,2.4859,2.4874,2.4891,2.4892,2.4963,2.4948,2.4957,2.4976,2.5047,2.505,2.5052,2.5056,2.5061,2.5064,0,0,0,0,0,0,2.4727,2.4759,2.476,2.4798,2.4821,2.485,2.4868,2.4871,2.4897,2.4896,2.491,2.4917,2.4955,2.4969,2.4952,2.5016,2.5004,2.5009,2.5005,2.5009,2.5012,2.5007,2.4947,0,0,0,0,0,2.4731,2.4756,2.4784,2.4814,2.4826,2.4845,2.4861,2.4869,2.4893,2.4903,2.4922,2.4946,2.4975,2.4993,2.502,2.5061,2.5068,2.5078,2.5081,2.5084,2.5087,2.5111,2.5117,2.5062,2.5062,2.5062,0,0,2.474,2.4761,2.4776,2.4815,2.4833,2.4861,2.4853,2.4882,2.4903,2.4907,2.4944,2.496,2.4988,2.5027,2.5046,2.5041,2.5104,2.5087,2.5089,2.5091,2.5115,2.512,2.5124,2.5064,2.5063,2.5063,0,0,2.477,2.4788,2.4816,2.4836,2.4864,2.4877,2.4884,2.4913,2.4923,2.4961,2.4965,2.4991,2.5038,2.5059,2.5075,2.5116,2.5118,2.5125,2.514,2.5164,2.5168,2.5172,2.5187,2.5192,2.5128,2.5128,2.5128,0,2.4778,2.4818,2.4831,2.486,2.4877,2.4883,2.4913,2.4931,2.4967,2.498,2.4974,2.5035,2.5054,2.5099,2.511,2.5123,2.5132,2.512,2.5166,2.5171,2.5174,2.5189,2.5195,2.5129,2.5129,2.5129,2.5129,0,2.4827,2.4855,2.4874,2.4909,2.4929,2.4958,2.4976,2.4995,2.5002,2.5016,2.5055,2.5079,2.5112,2.5123,2.513,2.517,2.5166,2.5163,2.5152,2.518,2.5194,2.52,2.513,2.513,2.5129,2.5129,0,0,2.4856,2.4899,2.4906,2.4922,2.4955,2.4977,2.5008,2.504,2.5056,2.5082,2.5108,2.515,2.5148,2.5167,2.5176,2.5196,2.5229,2.5191,2.5192,2.5197,2.5276,2.5277,2.5284,2.5231,2.5232,2.5233,2.5274,0,2.489,2.4943,2.4956,2.5002,2.5029,2.5037,2.5063,2.5087,2.5102,2.5128,2.5145,2.5174,2.5169,2.5181,2.5202,2.522,2.5244,2.5217,2.5256,2.5257,2.5248,2.5291,2.5292,2.533,2.5279,2.528,2.5281,0,2.4936,2.4962,2.5011,2.5041,2.5053,2.5077,2.5108,2.5133,2.5161,2.517,2.5193,2.52,2.5234,2.5222,2.5269,2.525,2.5267,2.5279,2.5281,2.5284,2.527,2.5295,2.5342,2.5347,2.5289,2.5289,2.5288,0,2.4953,2.5001,2.5036,2.505,2.5087,2.5103,2.512,2.5147,2.5166,2.5194,2.5207,2.5239,2.5256,2.5281,2.5298,2.5287,2.5344,2.5333,2.5353,2.5353,2.5364,2.5363,2.5413,2.5376,2.5376,2.5376,2.5375,0,2.4989,2.5018,2.5044,2.5066,2.51,2.5116,2.5149,2.5166,2.5191,2.5217,2.5226,2.5251,2.5272,2.53,2.5313,2.5351,2.5358,2.5368,2.5371,2.5367,2.5365,2.5377,2.5375,2.5377,2.5377,2.5376,2.5376,0,2.5013,2.5031,2.507,2.5103,2.5112,2.5135,2.5163,2.5186,2.5202,2.5235,2.5244,2.5269,2.5303,2.5322,2.5365,2.5374,2.5416,2.5418,2.5406,2.5407,2.5427,2.5425,2.5486,2.5496,2.5452,2.5452,2.5453,0,2.5034,2.5057,2.5092,2.511,2.5126,2.5155,2.5175,2.5193,2.5213,2.5248,2.5267,2.5301,2.5329,2.5382,2.5405,2.5438,2.5441,2.5461,2.5446,2.5442,2.5442,2.544,2.5443,2.5463,2.5463,2.5464,2.5464,0,2.507,2.5079,2.5106,2.5138,2.5161,2.5187,2.5213,2.5227,2.525,2.5273,2.5307,2.5329,2.5373,2.5407,2.5443,2.5461,2.5467,2.5469,2.5475,2.547,2.5463,2.5467,2.5412,2.5467,2.5466,2.5466,2.5466,2.5466,2.5093,2.5114,2.5143,2.5174,2.5195,2.522,2.5242,2.5262,2.5291,2.5327,2.5337,2.5373,2.5403,2.5451,2.5471,2.55,2.5497,2.5506,2.5509,2.5511,2.5511,2.5459,2.5507,2.5507,2.5507,2.5507,2.5507,0,2.513,2.5149,2.5177,2.5213,2.5238,2.5242,2.5271,2.5292,2.5324,2.5351,2.5379,2.542,2.5453,2.548,2.5515,2.5534,2.5538,2.5543,2.5541,2.5545,2.5512,2.5503,2.5539,2.5539,2.5539,2.5539,2.5539,2.5539,2.5152,2.5188,2.52,2.5248,2.5267,2.5303,2.5319,2.5343,2.5364,2.5409,2.5437,2.5454,2.5482,2.5519,2.5551,2.5558,2.5571,2.5575,2.5583,2.5551,2.5548,2.5544,2.5536,2.5578,2.5578,2.5614,2.5614,2.5615]},{"header":{"parameterUnit":"m.s-1","parameterCategory":1,"la1":30.2991,"la2":30.254,"lo1":-89.0895,"lo2":-89.0444,"dy":0.0017,"dx":0.0017,"nx":28,"ny":28,"refTime":"2024-03-10T03:00:00:Z","depth":0,"parameterNumber":3,"parameterNumberName":"V-component_of_WINDS"},"data":[0,0,0,0,0,0,0,0,0,0,0,0,0,0,0,0,0,0,0,0,0,0,0,0,0,0,0,0,0,0,0,0,0,0,0,0,0,0,0,0,0,0,0,0,0,0,0,0,0,0,0,0,0,0,0,0,0,0,-6.089,-6.0891,0,-6.0997,-6.0998,-6.0999,-6.0968,-6.0966,-6.0963,-6.0961,-6.1067,-6.1071,-6.1076,0,0,0,0,0,0,0,0,0,0,0,0,0,-6.0655,-6.066,-6.089,-6.0891,-6.0893,-6.0997,-6.0998,-6.1,-6.0968,-6.0965,-6.0963,-6.096,-6.1065,-6.1071,-6.1077,0,0,0,0,0,0,0,0,0,0,0,0,0,-6.0759,-6.0661,-6.089,-6.089,-6.0891,-6.0997,-6.0998,-6.1,-6.0969,-6.0965,-6.0962,-6.0959,-6.1063,-6.107,-6.1077,-6.1189,0,0,-6.11,-6.1103,0,0,0,0,0,0,0,0,-6.0753,-6.0768,-6.0888,-6.089,-6.0891,-6.0966,-6.0954,-6.1063,-6.097,-6.0939,-6.0961,-6.0957,-6.1035,-6.1045,-6.1072,-6.1194,-6.1198,-6.11,-6.1105,-6.1108,-6.111,0,0,0,0,0,0,0,-6.0746,-6.0763,-6.0932,-6.089,-6.0892,-6.0883,-6.0894,-6.0975,-6.1004,-6.0941,-6.0939,-6.0953,-6.1036,-6.1065,-6.1074,-6.12,-6.11,-6.1107,-6.1111,-6.1114,-6.1419,-6.1422,0,0,0,0,0,0,-6.0738,-6.0757,-6.0929,-6.0935,-6.0813,-6.089,-6.0902,-6.0945,-6.1003,-6.1009,-6.0955,-6.0951,-6.1054,-6.1066,-6.1078,-6.1212,-6.1108,-6.1115,-6.1119,-6.1415,-6.1419,-6.1423,0,0,0,0,0,0,-6.0733,-6.0754,-6.0924,-6.0846,-6.0867,-6.0898,-6.0946,-6.0949,-6.0978,-6.1014,-6.1019,-6.098,-6.1052,-6.1068,-6.1162,-6.1216,-6.1118,-6.1125,-6.1411,-6.1416,-6.1421,-6.1482,0,0,0,0,0,0,-6.0727,-6.0752,-6.0796,-6.0847,-6.0871,-6.1008,-6.0949,-6.0953,-6.0992,-6.0987,-6.1039,-6.1044,-6.1051,-6.1151,-6.1169,-6.1224,-6.113,-6.1406,-6.1413,-6.142,-6.1476,-6.1489,-6.1501,0,0,0,0,0,-6.0719,-6.0807,-6.0798,-6.0819,-6.0926,-6.1011,-6.1025,-6.1032,-6.0996,-6.1039,-6.1063,-6.1042,-6.1207,-6.1161,-6.1181,-6.1239,-6.1402,-6.1411,-6.1419,-6.147,-6.1487,-6.1501,0,0,0,0,0,0,-6.0759,-6.0814,-6.0804,-6.0912,-6.0958,-6.1006,-6.106,-6.1049,-6.1104,-6.1097,-6.1102,-6.1114,-6.1211,-6.1234,-6.1182,-6.135,-6.1299,-6.1312,-6.1331,-6.1347,-6.136,-6.1351,-6.1136,0,0,0,0,0,-6.0781,-6.0847,-6.0891,-6.0982,-6.1005,-6.1029,-6.1066,-6.1068,-6.1114,-6.1133,-6.1163,-6.1207,-6.1269,-6.1309,-6.1368,-6.1479,-6.149,-6.1529,-6.1541,-6.1552,-6.1562,-6.1623,-6.1641,-6.1451,-6.1451,-6.1451,0,0,-6.0827,-6.0865,-6.0905,-6.0991,-6.1026,-6.1093,-6.1045,-6.1118,-6.1167,-6.1143,-6.1235,-6.1258,-6.1308,-6.1412,-6.1459,-6.1434,-6.1617,-6.1562,-6.157,-6.1575,-6.1633,-6.1651,-6.1667,-6.1457,-6.1456,-6.1455,0,0,-6.0943,-6.0979,-6.1059,-6.1096,-6.1151,-6.1166,-6.1186,-6.1236,-6.1252,-6.1344,-6.1328,-6.1386,-6.1492,-6.1529,-6.1561,-6.1694,-6.1678,-6.1713,-6.1779,-6.1838,-6.1853,-6.1866,-6.1913,-6.193,-6.1724,-6.1724,-6.1724,0,-6.0992,-6.1094,-6.1101,-6.1176,-6.1215,-6.1198,-6.1279,-6.1314,-6.1385,-6.1411,-6.1383,-6.1517,-6.1549,-6.1661,-6.1694,-6.1721,-6.1743,-6.1707,-6.185,-6.1864,-6.1876,-6.1921,-6.1939,-6.1728,-6.1727,-6.1727,-6.1727,0,-6.1151,-6.1222,-6.128,-6.1351,-6.1395,-6.1473,-6.1492,-6.1536,-6.1535,-6.1553,-6.1647,-6.1686,-6.1753,-6.1779,-6.1778,-6.1892,-6.1875,-6.1849,-6.1798,-6.1898,-6.1941,-6.1958,-6.1733,-6.1732,-6.1731,-6.173,0,0,-6.1295,-6.1371,-6.1392,-6.1424,-6.1484,-6.1538,-6.1615,-6.1682,-6.172,-6.1769,-6.1834,-6.1925,-6.1902,-6.1939,-6.1941,-6.1993,-6.2096,-6.1961,-6.1962,-6.1984,-6.2224,-6.2243,-6.2263,-6.2086,-6.2089,-6.2092,-6.222,0,-6.1417,-6.1553,-6.1564,-6.1686,-6.1752,-6.1738,-6.1805,-6.1849,-6.1868,-6.1926,-6.1946,-6.2011,-6.1976,-6.1998,-6.2049,-6.2073,-6.2144,-6.2064,-6.2145,-6.2147,-6.2132,-6.2285,-6.2305,-6.2423,-6.2236,-6.2239,-6.2241,0,-6.1577,-6.1633,-6.1763,-6.1815,-6.1843,-6.1903,-6.1966,-6.2022,-6.2071,-6.2081,-6.2124,-6.2119,-6.2197,-6.2145,-6.2252,-6.2197,-6.2231,-6.2248,-6.2252,-6.2259,-6.22,-6.2296,-6.2461,-6.2479,-6.2267,-6.2265,-6.2263,0,-6.1668,-6.1777,-6.1869,-6.1897,-6.196,-6.2003,-6.2031,-6.2077,-6.2117,-6.2171,-6.2197,-6.226,-6.2294,-6.2342,-6.2354,-6.2314,-6.2461,-6.2409,-6.2471,-6.2471,-6.2502,-6.2499,-6.2674,-6.2525,-6.2524,-6.2524,-6.2524,0,-6.1803,-6.1883,-6.1911,-6.1968,-6.2057,-6.2068,-6.2156,-6.2181,-6.2222,-6.2283,-6.2274,-6.2331,-6.2344,-6.2403,-6.2413,-6.25,-6.2516,-6.2526,-6.2527,-6.2526,-6.2525,-6.2548,-6.254,-6.2529,-6.2528,-6.2527,-6.2526,0,-6.192,-6.1942,-6.2042,-6.2094,-6.2109,-6.2173,-6.2217,-6.2271,-6.229,-6.2367,-6.2385,-6.2415,-6.2484,-6.2502,-6.2584,-6.259,-6.2693,-6.2687,-6.2677,-6.2677,-6.2738,-6.2732,-6.2933,-6.296,-6.2793,-6.2794,-6.2796,0,-6.2004,-6.2066,-6.2125,-6.2166,-6.2197,-6.2262,-6.2304,-6.2317,-6.236,-6.2422,-6.2469,-6.2537,-6.2593,-6.2704,-6.2732,-6.2795,-6.2789,-6.2856,-6.2799,-6.2796,-6.279,-6.2786,-6.2792,-6.2866,-6.2868,-6.2869,-6.2871,0,-6.2151,-6.2159,-6.222,-6.2286,-6.2336,-6.2388,-6.2438,-6.2471,-6.2491,-6.254,-6.2612,-6.2656,-6.2741,-6.2808,-6.2872,-6.2899,-6.2888,-6.2889,-6.2906,-6.2905,-6.2897,-6.2902,-6.2707,-6.2884,-6.2882,-6.2881,-6.2881,-6.288,-6.2254,-6.2308,-6.2359,-6.2428,-6.2467,-6.2514,-6.2568,-6.2595,-6.2655,-6.2727,-6.2731,-6.2809,-6.2856,-6.2941,-6.2972,-6.3033,-6.3012,-6.3038,-6.3044,-6.305,-6.3055,-6.2889,-6.3044,-6.3044,-6.3044,-6.3043,-6.3043,0,-6.24,-6.2433,-6.2496,-6.2566,-6.262,-6.2608,-6.2662,-6.2708,-6.2777,-6.2824,-6.2879,-6.2962,-6.3028,-6.3062,-6.3128,-6.317,-6.3166,-6.3186,-6.3183,-6.3189,-6.307,-6.3048,-6.3188,-6.3188,-6.3188,-6.3188,-6.3188,-6.3188,-6.2482,-6.2574,-6.2589,-6.27,-6.2732,-6.2809,-6.2842,-6.2885,-6.2922,-6.3016,-6.3071,-6.3094,-6.3135,-6.3204,-6.3264,-6.3273,-6.3297,-6.3319,-6.3325,-6.3212,-6.3198,-6.3184,-6.3163,-6.3325,-6.3325,-6.3439,-6.344,-6.3441]}]]